sat.trackr.live / text

‹ back to catalog

ONEWEB-0583

NORAD 54650 · 2022-166J

PAYLOAD ACTIVE UNKNOWN

§ Identity

Operator
Country
UK
Launch date
2022-12-08
Launch site
AFETR
Launch vehicle
Mass (kg)
RCS (m²)

Purposes: comms

External: N2YO · Heavens-Above · Gunter

§ Orbital elements

Epoch: 2026-05-24T23:31:03.309888Z

Period
108.94 min
Inclination
87.9252°
Eccentricity
0.0002102
Mean motion
13.21825106 rev/d
Perigee alt
1,176.2 km
Apogee alt
1,179.3 km
Semi-major
7,555.9 km
B*
-8.1254e-5
RAAN
248.6152°
Arg perigee
98.8743°
Mean anomaly
261.2629°
Rev number
16,846

§ Raw data

ONEWEB-05831 54650U 22166J   26144.97989942 -.00000021  00000+0 -81254-4 0  99992 54650  87.9252 248.6152 0002102  98.8743 261.2629 13.21825106168469

JSON: /api/v1/satellites/54650 · /tle

For live sub-satellite position, see the globe view (requires WebGL).

§ Visibility from observer

Set your observer location to see the next 7 days of passes ≥ 10°. The values pass through the URL so the page stays shareable.

No JS? Fill the form by hand. The geolocation button needs JavaScript.